Lexington Weather

Lexington, Massachusetts, USA

49°F
12/8/2022 2:52pm 
  • Lexington Conditions: Clear
  • Temperature: 48.6°F / 9.2°CColder 1.4°F than last hour.
  • Dew Point: 35.2°FDecreased 0.2°Fsince last hour.
  • Relative Humidity: 60%Increased 3.0% since last hour.
  • Wind: Wind from N N Calm, 10-min avg: 2 mph, gust: 8 mph
  • Barometer: 30.07 in Steady
  • Visibility: 10 miles
  • Rain Today: 0.00 in
  •   

Warning: Undefined variable $rc in /homepages/6/d276339138/htdocs/weather/20190804/ssi/nwsProduct.php on line 323

Warning: Undefined variable $rc in /homepages/6/d276339138/htdocs/weather/20190804/ssi/nwsProduct.php on line 325

Warning: Undefined variable $rc in /homepages/6/d276339138/htdocs/weather/20190804/ssi/nwsProduct.php on line 323

Warning: Undefined variable $rc in /homepages/6/d276339138/htdocs/weather/20190804/ssi/nwsProduct.php on line 325

Warning: Undefined variable $rc in /homepages/6/d276339138/htdocs/weather/20190804/ssi/nwsProduct.php on line 323

Warning: Undefined variable $rc in /homepages/6/d276339138/htdocs/weather/20190804/ssi/nwsProduct.php on line 325

Warning: Undefined variable $rc in /homepages/6/d276339138/htdocs/weather/20190804/ssi/nwsProduct.php on line 323

Warning: Undefined variable $rc in /homepages/6/d276339138/htdocs/weather/20190804/ssi/nwsProduct.php on line 325

Warning: Undefined variable $rc in /homepages/6/d276339138/htdocs/weather/20190804/ssi/nwsProduct.php on line 323

Warning: Undefined variable $rc in /homepages/6/d276339138/htdocs/weather/20190804/ssi/nwsProduct.php on line 325

Warning: Undefined variable $rc in /homepages/6/d276339138/htdocs/weather/20190804/ssi/nwsProduct.php on line 323

Warning: Undefined variable $rc in /homepages/6/d276339138/htdocs/weather/20190804/ssi/nwsProduct.php on line 325

Warning: Undefined variable $rc in /homepages/6/d276339138/htdocs/weather/20190804/ssi/nwsProduct.php on line 323

Warning: Undefined variable $rc in /homepages/6/d276339138/htdocs/weather/20190804/ssi/nwsProduct.php on line 325

Regional Weather Roundup
for Boston, MA

        
000
ASUS41 KBOX 060310
RWRBOX

REGIONAL WEATHER ROUNDUP
NATIONAL WEATHER SERVICE BOSTON/NORTON MA
1000 PM EST MON DEC 05 2022

NOTE:  "FAIR" INDICATES FEW OR NO CLOUDS BELOW 12,000 FEET WITH NO 
SIGNIFICANT WEATHER AND/OR OBSTRUCTIONS TO VISIBILITY.

MAZALL-060400-
EASTERN MASSACHUSETTS
  
CITY           SKY/WX    TMP DP  RH WIND       PRES   REMARKS
BOSTON         PTCLDY    41  36  82 S5        30.38R                  
BEVERLY        CLEAR     35  33  92 CALM      30.37R                  
LAWRENCE       PTCLDY    39  33  79 S3        30.39R                  
BEDFORD        PTCLDY    32  28  85 CALM      30.36R                  
NORWOOD        CLEAR     31  28  89 CALM      30.37R                  
MARSHFIELD       N/A     43  37  81 S5        30.38R                  
PLYMOUTH       CLEAR     41  35  79 CALM      30.37R                  
TAUNTON          N/A    N/A N/A N/A MISG      30.37R                  
NEW BEDFORD    CLEAR     40  39  97 CALM      30.37R                  
$$

MAZALL-060400-
CAPE COD AND THE ISLANDS
  
CITY           SKY/WX    TMP DP  RH WIND       PRES   REMARKS
FALMOUTH       CLEAR     36  34  93 E8        30.38R WCI  29          
HYANNIS        CLEAR     40  37  89 SE3       30.37S                  
CHATHAM        CLEAR     42  36  79 SE6       30.40S                  
PROVINCETOWN   CLEAR     43  38  82 SE6       30.39S                  
NANTUCKET      CLEAR     43  38  82 E8        30.39R                  
MARTHAS VNYRD  CLEAR     45  40  82 SE8       30.37S                  
$$
 
MAZALL-060400-
CENTRAL AND WESTERN MASSACHUSETTS
  
CITY           SKY/WX    TMP DP  RH WIND       PRES   REMARKS
WORCESTER      CLEAR     38  32  79 W8        30.32S                  
FITCHBURG      CLEAR     32  28  85 CALM      30.36S                  
ORANGE         CLEAR     29  25  85 NW7       30.33F WCI  22          
SPRINGFIELD    MOCLDY    31  29  89 SE3       30.31F                  
WESTFIELD      CLEAR     28  23  81 CALM      30.33F                  
NORTH ADAMS    PTCLDY    29  19  66 S5        30.28S WCI  24          
PITTSFIELD     PTCLDY    31  22  69 VRB5      30.26S WCI  26          
$$
 
RIZALL-060400-
RHODE ISLAND
  
CITY           SKY/WX    TMP DP  RH WIND       PRES   REMARKS
PROVIDENCE     MOCLDY    35  32  88 CALM      30.36S                  
NEWPORT        PTCLDY    46  39  76 SE8       30.35S                  
BLOCK ISLAND   CLEAR     47  40  76 SE8       30.35S                  
SMITHFIELD     PTCLDY    35  33  92 CALM      30.35S                  
WESTERLY       CLEAR     33  30  88 CALM      30.35S                  
$$
 
CTZALL-060400-
CONNECTICUT
  
CITY           SKY/WX    TMP DP  RH WIND       PRES   REMARKS
BRADLEY INTL   PTCLDY    32  27  81 E5        30.34F WCI  27          
HARTFORD       MOCLDY    34  31  88 CALM      30.35F                  
BRIDGEPORT     PTCLDY    35  32  88 CALM      30.32F                  
DANBURY        PTCLDY    28  21  75 CALM      30.32F                  
GROTON         MOCLDY    35  32  88 N3        30.35R                  
NEW HAVEN      PTCLDY    33  30  88 CALM      30.33F                  
CHESTER        MOCLDY    39  36  87 CALM      30.33S                  
MERIDEN        PTCLDY    31  27  85 CALM      30.34F                  
WILLIMANTIC    MOCLDY    29  28  96 CALM      30.36R                  
OXFORD         PTCLDY    30  28  92 E5        30.32S WCI  25          
$$

MEZ002-015-021-024-NHZ003-005-008-011-012-014-VTZ005-008-060400-
NORTHERN NEW ENGLAND
  
CITY           SKY/WX    TMP DP  RH WIND       PRES   REMARKS
PORTLAND ME    CLEAR     40  33  76 SW3       30.38S                  
BANGOR ME      MOCLDY    39  33  79 S5        30.39R                  
CONCORD NH     CLEAR     34  30  85 SE9       30.34F WCI  27          
MANCHESTER NH  MOCLDY    34  29  82 CALM      30.35R                  
NASHUA NH      CLEAR     30  30 100 CALM      30.37S                  
PORTSMOUTH NH  MOCLDY    34  30  85 SE6       30.37R WCI  29          
JAFFREY NH     CLEAR     32  28  85 CALM      30.30F                  
KEENE NH       CLEAR     30  27  88 CALM        N/A                   
BURLINGTON VT  MOCLDY    42  16  34 S15       30.21R                  
MT. WASHINGTON MOCLDY    23   1  39 SW29G38     N/A  WCI   6          
$$

NYZ052-076-060400-
EASTERN NEW YORK
  
CITY           SKY/WX    TMP DP  RH WIND       PRES   REMARKS
ALBANY         MOCLDY    39  19  44 S12       30.26F WCI  32          
NEW YORK CITY  PTCLDY    43  33  68 SE3       30.31F                  
$$
 
ANZALL-060400-
MARINE OBSERVATIONS
  
STATION/POSITION TIME  TEMP    WIND        PRES    VSBY  WAVE
                       AIR SEA DIR/SP/G                  HT/PER
                 (UTC) (F)     (DEG/KT/KT) (MB)    (MI)  (FT/S)
BOSTON BUOY      0250      51  170/ 14/ 17 1029.0R         3/ 4
BUZZARDS BAY     0200   49     150/ 15/ 16 1028.4R
NANTUCKET SOUND  0250   48 49  130/ 14/ 16 1028.6R         1/ 2
MASS BAY-STELLWA 0104   48 50  180/ 16/ 19 1027.0S  1 7/8  3/ 5
ISLE OF SHOALS   0200   46     210/ 16/ 18 1027.9R
S OF BLOCK IS    0256      54                N/A           3/10
$$

......................KEY.........................
  SKY/WX - SKY CONDITION/PRESENT WEATHER
  TMP    - TEMPERATURE IN FAHRENHEIT
  DWPT   - DEWPOINT IN FAHRENHEIT
  RH     - RELATIVE HUMIDITY IN PERCENT
  WIND   - DIRECTION AND SPEED IN MPH
  PRES   - MEAN SEA LEVEL PRESSURE IN INCHES OF HG
  WCI    - WIND CHILL INDEX
  VSB    - VISIBILITY IN MILES
  HX     - HEAT INDEX
  TC     - TEMPERATURE IN CELSIUS
  VRB    - VARIABLE WIND DIRECTION
  N/A    - NOT AVAILABLE
  
      

Other recent Regional Weather Roundups

Thu Dec 8, 2:10pm

Thu Dec 8, 1:10pm

Thu Dec 8, 12:10pm

Thu Dec 8, 11:10am

Thu Dec 8, 10:10am

Thu Dec 8, 9:10am

Thu Dec 8, 8:10am

Thu Dec 8, 7:10am

Thu Dec 8, 6:10am

Thu Dec 8, 5:10am

Thu Dec 8, 4:10am

Thu Dec 8, 3:10am

Thu Dec 8, 2:10am

Thu Dec 8, 1:10am

Thu Dec 8, 12:10am

Wed Dec 7, 11:10pm

Wed Dec 7, 10:10pm

Wed Dec 7, 9:10pm

Wed Dec 7, 8:10pm

Wed Dec 7, 7:10pm

Wed Dec 7, 6:10pm

Wed Dec 7, 5:10pm

Wed Dec 7, 4:10pm

Wed Dec 7, 3:10pm

Wed Dec 7, 2:10pm

Wed Dec 7, 1:10pm

Wed Dec 7, 12:10pm

Wed Dec 7, 11:10am

Wed Dec 7, 10:10am

Wed Dec 7, 9:10am

Wed Dec 7, 8:10am

Wed Dec 7, 7:10am

Wed Dec 7, 6:10am

Wed Dec 7, 5:10am

Wed Dec 7, 4:10am

Wed Dec 7, 3:10am

Wed Dec 7, 2:10am

Wed Dec 7, 1:10am

Wed Dec 7, 12:10am

Tue Dec 6, 11:10pm

Tue Dec 6, 10:10pm

Tue Dec 6, 9:10pm

Tue Dec 6, 8:10pm

Tue Dec 6, 7:10pm

Tue Dec 6, 6:10pm

Tue Dec 6, 5:10pm

Tue Dec 6, 4:10pm

Tue Dec 6, 3:10pm

Tue Dec 6, 2:10pm

Tue Dec 6, 1:10pm

Tue Dec 6, 12:10pm

Tue Dec 6, 11:10am

Tue Dec 6, 10:10am

Tue Dec 6, 9:10am

Tue Dec 6, 8:10am

Tue Dec 6, 7:10am

Tue Dec 6, 6:10am

Tue Dec 6, 5:10am

Tue Dec 6, 4:10am

Tue Dec 6, 3:10am

Tue Dec 6, 2:10am

Tue Dec 6, 1:10am

Tue Dec 6, 12:10am

Mon Dec 5, 11:10pm

Mon Dec 5, 9:10pm

Mon Dec 5, 8:10pm

Mon Dec 5, 7:10pm

Mon Dec 5, 6:10pm

Mon Dec 5, 5:10pm

Mon Dec 5, 4:10pm

Mon Dec 5, 3:10pm

Mon Dec 5, 2:10pm

Mon Dec 5, 1:10pm

Mon Dec 5, 12:10pm

Mon Dec 5, 11:10am

Mon Dec 5, 10:10am

Mon Dec 5, 9:10am

Mon Dec 5, 8:10am

Mon Dec 5, 7:10am

Mon Dec 5, 6:10am

Mon Dec 5, 5:10am

Mon Dec 5, 4:10am

Mon Dec 5, 3:10am

Mon Dec 5, 2:10am

Mon Dec 5, 1:10am

Mon Dec 5, 12:10am

Sun Dec 4, 11:10pm

Sun Dec 4, 10:10pm

Sun Dec 4, 9:10pm

Sun Dec 4, 8:10pm

Sun Dec 4, 7:10pm

Sun Dec 4, 6:10pm

Sun Dec 4, 5:10pm

Sun Dec 4, 4:10pm

Sun Dec 4, 3:10pm

Sun Dec 4, 2:10pm

Sun Dec 4, 1:10pm

Sun Dec 4, 12:10pm

Sun Dec 4, 11:10am

Sun Dec 4, 10:10am

Sun Dec 4, 9:10am

Sun Dec 4, 8:10am

Sun Dec 4, 7:10am

Sun Dec 4, 6:10am

Sun Dec 4, 5:10am

Sun Dec 4, 4:10am

Sun Dec 4, 3:10am

Sun Dec 4, 2:10am

Sun Dec 4, 1:10am

Sun Dec 4, 12:10am

Sat Dec 3, 11:10pm

Sat Dec 3, 10:10pm

Sat Dec 3, 9:10pm

Sat Dec 3, 8:10pm

Sat Dec 3, 7:10pm

Sat Dec 3, 6:10pm

Sat Dec 3, 5:10pm

Sat Dec 3, 4:10pm

Sat Dec 3, 3:10pm

Sat Dec 3, 2:10pm

Sat Dec 3, 1:10pm

Sat Dec 3, 12:10pm

Sat Dec 3, 11:10am

Sat Dec 3, 10:10am

Sat Dec 3, 9:10am

Sat Dec 3, 8:10am

Sat Dec 3, 7:10am

Sat Dec 3, 6:10am

Sat Dec 3, 5:10am

Sat Dec 3, 4:10am

Sat Dec 3, 3:10am

Sat Dec 3, 2:10am

Sat Dec 3, 1:10am

Sat Dec 3, 12:10am

Fri Dec 2, 11:10pm

Fri Dec 2, 10:10pm

Fri Dec 2, 9:10pm

Fri Dec 2, 8:10pm

Fri Dec 2, 7:10pm

Fri Dec 2, 6:10pm

Fri Dec 2, 5:10pm

Fri Dec 2, 4:10pm

Fri Dec 2, 3:10pm

Fri Dec 2, 2:10pm

Fri Dec 2, 1:10pm

Fri Dec 2, 12:10pm

Fri Dec 2, 11:10am

Fri Dec 2, 10:10am

Fri Dec 2, 9:10am

Fri Dec 2, 8:10am

Fri Dec 2, 7:10am

Fri Dec 2, 6:10am

Fri Dec 2, 5:10am

Fri Dec 2, 4:10am

Fri Dec 2, 3:10am

Fri Dec 2, 2:10am

Fri Dec 2, 1:10am

Fri Dec 2, 12:10am

Thu Dec 1, 11:10pm

Thu Dec 1, 10:10pm

Thu Dec 1, 9:10pm

Thu Dec 1, 8:10pm

Thu Dec 1, 7:10pm

Thu Dec 1, 6:10pm

Thu Dec 1, 5:10pm

Thu Dec 1, 4:10pm

Thu Dec 1, 3:10pm

Meta data:

ID: 4e85e237-38dc-4e99-9566-ed2d16eac0b9
Link: https://api.weather.gov/products/4e85e237-38dc-4e99-9566-ed2d16eac0b9